Regional Weather Roundup
Issued by NWS

Home | Current Version | Previous Version | Graphics & Text | Print | Product List | Glossary Off
Versions: 1 2 3 4 5 6 7 8 9 10 11 12 13 14 15 16 17 18 19 20 21 22 23 24 25 26 27 28 29 30 31 32 33 34 35 36 37 38 39 40 41 42 43 44 45 46 47 48 49 50

641
ASUS43 KDMX 291301
RWRIA

WEATHER ROUNDUP FOR IOWA
NATIONAL WEATHER SERVICE DES MOINES IA
800 AM CDT THU JUN 29 2017

NOTE: "FAIR" INDICATES FEW OR NO CLOUDS BELOW 12,000 FEET WITH NO
SIGNIFICANT WEATHER AND/OR OBSTRUCTIONS TO VISIBILITY.

* - THESE STATIONS ARE NOT NWS STATIONS...THUS NOT UNDER NWS
QUALITY CONTROL.  THEY ALSO DO NOT REPORT WEATHER SUCH
AS PRECIPITATION OR FOG.

IAZ001>003-012>014-020>022-031>034-043>046-291400-
   NORTHWEST IOWA

CITY           SKY/WX    TMP DP  RH WIND       PRES   REMARKS
CARROLL *      PTSUNNY   72  70  94 SW8       29.75S
CHEROKEE *     CLOUDY    64  64  97 CALM      29.77R
DENISON *      CLOUDY    70  68  94 VRB5      29.76S
LE MARS *      CLOUDY    66  63  88 N5        29.76R
ORANGE CITY *  PTSUNNY   66  63  88 NE6       29.77R
SHELDON *      MOSUNNY   68  63  83 CALM      29.76R
SIOUX CITY     PTSUNNY   69  63  81 NE6       29.73F
SPENCER        MOSUNNY   66  62  87 N3        29.76F
STORM LAKE *   CLOUDY    68  64  88 SE5       29.78R
$$

IAZ055>058-069>071-079>083-090>094-291400-
   SOUTHWEST IOWA

CITY           SKY/WX    TMP DP  RH WIND       PRES   REMARKS
ATLANTIC *     CLOUDY    72  68  88 SW8       29.76R
AUDUBON *      PTSUNNY   70  66  88 S7        29.77R
CLARINDA *     CLOUDY    70  66  88 SW6       29.78F
COUNCIL BLFS * CLOUDY    70  70 100 SW6       29.78R
CRESTON *      CLOUDY    68  66  94 S17G25    29.78F
HARLAN  *      CLOUDY    70  70 100 S7        29.78R
LAMONI         LGT RAIN  68  64  87 S21G32    29.80S
RED OAK *      CLOUDY    70  68  94 SW8       29.78R
SHENANDOAH *   CLOUDY    70  66  88 SW6G13    29.80R
$$

IAZ047>049-059>061-072>074-084-291400-
   CENTRAL IOWA

CITY           SKY/WX    TMP DP  RH WIND       PRES   REMARKS
AMES           CLOUDY    72  70  93 W6        29.74F
ANKENY *       CLOUDY    75  66  73 SW13G21   29.75S
BOONE *        CLOUDY    72  68  88 SW8       29.75R
CHARITON *     CLOUDY    68  64  88 S20       29.79R
DES MOINES     CLOUDY    74  65  73 SW21      29.74S
GRINNELL*      CLOUDY    67  64  89 S8        29.79R
KNOXVILLE *    CLOUDY    68  64  88 S9        29.76S
MARSHALLTOWN   CLOUDY    69  68  96 CALM      29.76S
NEWTON *       CLOUDY    68  66  94 S8        29.77F
PELLA *        CLOUDY    68  64  88 CALM      29.78F
PERRY *          N/A     72  69  91 SW8       29.74S
$$

IAZ004>006-015-016-023>025-035-036-291400-
   NORTH CENTRAL IOWA

CITY           SKY/WX    TMP DP  RH WIND       PRES   REMARKS
ALGONA *       CLOUDY    68  64  88 N6        29.75F
CLARION *        N/A     68  68 100 N6        29.75S
ESTHERVILLE    CLOUDY    65  63  93 N7        29.76F
FORT DODGE *   PTSUNNY   66  63  88 CALM      29.77S
MASON CITY     CLOUDY    67  63  87 NW12      29.77R
FOREST CITY *    N/A     68  61  77 NW8       29.76S
WEBSTER CITY * CLOUDY    68  68 100 CALM      29.74S FOG
IOWA FALLS *   FOG       67  66  97 SW6       29.77S VSB 1
$$

IAZ007>011-017>019-026>030-037>042-050>054-066-291400-
   NORTHEAST IOWA

CITY           SKY/WX    TMP DP  RH WIND       PRES   REMARKS
CEDAR RAPIDS   PTSUNNY   68  66  93 SW12      29.78R
CHARLES CITY * SUNNY     66  66 100 NW3       29.76R
CLINTON *      MOSUNNY   71  64  78 W16       29.77F
DECORAH *      SUNNY     68  63  83 W3        29.74R
DUBUQUE        CLOUDY    67  64  90 SW15      29.77S
MONTICELLO *   PTSUNNY   68  64  88 SW12      29.77S
OELWEIN *      CLOUDY    66  66 100 SW8       29.77R FOG
WATERLOO       CLOUDY    67  65  93 SW8       29.75S FOG
$$

IAZ064-065-067-068-078-291400-
   EAST CENTRAL IOWA

CITY           SKY/WX    TMP DP  RH WIND       PRES   REMARKS
IOWA CITY      CLOUDY    70  63  78 SW9       29.80R
MUSCATINE *    CLOUDY    72  63  73 VRB7G17   29.79R
QUAD CITIES    CLOUDY    72  61  68 W17       29.77S
$$

IAZ062-063-075>077-085>089-095>099-291400-
   SOUTHEAST IOWA

CITY           SKY/WX    TMP DP  RH WIND       PRES   REMARKS
BURLINGTON     CLOUDY    70  63  78 SW15      29.81R
FAIRFIELD *    CLOUDY    68  63  83 SW13      29.81R
FORT MADISON * PTSUNNY   70  63  78 SW13      29.83R
KEOKUK *       CLOUDY    68  63  83 SW9       29.82R
OSKALOOSA *      N/A     67  63  87 S10       29.80R
OTTUMWA        CLOUDY    68  65  90 S14       29.80R
WASHINGTON *   CLOUDY    70  64  83 SW12G17   29.81R
$$

ABBREVIATIONS USED IN REMARKS
   TC - TEMPERATURES IN CELSIUS
  WCI - WIND CHILL INDEX
   HX - HEAT INDEX
  VSB - VISIBILITY
$$





USA.gov is the U.S. government's official web portal to all federal, state and local government web resources and services.